Simultaneous Nadir Overpasses (SNOs) Predictions

Prediction of SNOs between NOAA-19 and TERRA Satellite Orbit:

Table of predicted SNOs for the next 14.0 days since TLE Epoch: 2/8/2013
Index Date (NOAA-19) Time (NOAA-19) Lat,Lon (NOAA-19) SZA (NOAA-19 ) Date (TERRA) Time (TERRA) Lat,Lon (TERRA) SZA (TERRA ) Distance(km) Time Diff (sec)
1 02/09/2013 00:58:33 -69.26, -15.00 96.13 02/09/2013 00:59:02 -69.29, -14.97 96.11 3.02 29
2 02/09/2013 01:49:34 69.11, 152.45 83.71 02/09/2013 01:48:30 69.13, 152.47 83.73 1.75 64
3 02/11/2013 05:43:00 -69.23, -86.05 96.88 02/11/2013 05:43:19 -69.23, -86.11 96.88 2.27 19
4 02/11/2013 06:34:00 69.06, 81.43 82.94 02/11/2013 06:32:47 69.07, 81.33 82.96 4.27 73
5 02/13/2013 09:36:44 70.20, 34.13 83.42 02/13/2013 09:37:51 70.11, 36.39 83.26 85.86 67
6 02/13/2013 10:27:28 -69.25,-157.18 97.60 02/13/2013 10:27:35 -69.23,-157.18 97.62 1.78 7
7 02/13/2013 11:18:20 68.68, 10.85 81.82 02/13/2013 11:17:09 68.73, 9.83 81.89 41.48 71
8 02/15/2013 14:21:04 69.83, -36.39 82.28 02/15/2013 14:22:14 69.71, -35.23 82.12 46.41 70
9 02/15/2013 15:11:55 -69.21, 131.77 98.39 02/15/2013 15:11:51 -69.22, 131.74 98.38 1.53 4
10 02/15/2013 16:02:39 68.25, -59.68 80.62 02/15/2013 16:01:32 68.32, -61.74 80.75 85.01 67
11 02/17/2013 19:05:24 69.45,-106.93 81.12 02/17/2013 19:06:35 69.41,-106.70 81.06 10.06 71
12 02/17/2013 19:56:23 -69.22, 60.64 99.14 02/17/2013 19:56:07 -69.19, 60.64 99.17 3.02 16
13 02/19/2013 23:49:49 69.34,-177.86 80.22 02/19/2013 23:50:52 69.33,-177.88 80.19 1.68 63
14 02/20/2013 00:40:50 -69.18, -10.41 99.96 02/20/2013 00:40:23 -69.17, -10.46 99.98 2.77 27
15 02/22/2013 04:34:16 69.33, 111.05 79.41 02/22/2013 04:35:07 69.34, 111.08 79.41 2.07 51
16 02/22/2013 05:25:18 -69.19, -81.53 100.75 02/22/2013 05:24:38 -69.19, -81.50 100.76 1.59 40




NCC Satellite Simultaneous Nadir Overpasses (SNOs) Prediction Service
